Regional Weather Roundup
Issued by NWS Kansas City/Pleasant Hill, MO

Home | Current Version | Previous Version | Text Only | Print | Product List | Glossary On
Versions: 1 2 3 4 5 6 7 8 9 10 11 12 13 14 15 16 17 18 19 20 21 22 23 24 25 26 27 28 29 30 31 32 33 34 35 36 37 38 39 40 41 42 43 44 45 46 47 48 49 50
000
ASUS43 KEAX 212204
RWREAX

WEATHER ROUNDUP FOR EASTERN KANSAS AND NORTHWEST MISSOURI
NATIONAL WEATHER SERVICE KANSAS CITY/PLEASANT HILL MO
500 PM CDT TUE OCT 21 2014

KSZ040-057-103>105-MOZ028-029-037-043-212300-
...KANSAS CITY METROPOLITAN AREA...

CITY           SKY/WX    TMP DP  RH WIND       PRES   REMARKS
K.C. INTL      SUNNY     71  44  37 SE6       30.07F
K.C. DOWNTOWN  SUNNY     74  45  35 E3        30.06F
LEES SUMMIT    SUNNY     72  43  35 SE5       30.08F
OLATHE - IXD   SUNNY     72  45  37 SE3       30.07F
OLATHE - OJC   SUNNY     73  44  35 CALM      30.07S
LAWRENCE       SUNNY     74  43  32 S7        30.05F

$$

MOZ001>008-011>017-020>025-030>033-038>040-044>046-053-054-212300-
...NORTHERN AND CENTRAL MISSOURI...

CITY           SKY/WX    TMP DP  RH WIND       PRES   REMARKS
ST. JOSEPH     SUNNY     73  43  33 SE7       30.06F
MOSBY          CLEAR     72  37  28 S3        30.08S
WHITEMAN AFB   SUNNY     72  42  33 CALM      30.08S
CLINTON        SUNNY     73  46  38 SE3       30.09S
SEDALIA        SUNNY     73  41  31 CALM      30.10S
WARSAW         NOT AVBL
MARSHALL       SUNNY     73  46  38 NE3       30.10S
CHILLICOTHE      N/A     71  45  39 SE5       30.10S
MOBERLY        SUNNY     70  41  35 NE6       30.12S
KIRKSVILLE     SUNNY     64  45  49 E7        30.13S

$$

MOZ041-047>049-056>058-063>065-088>090-097-212300-
...EASTERN AND SOUTHERN MISSOURI...

CITY           SKY/WX    TMP DP  RH WIND       PRES   REMARKS
ST. LOUIS INTL SUNNY     66  43  43 NE7       30.12R
SPIRIT OF STL  SUNNY     66  43  43 NE8       30.10S
COLUMBIA       SUNNY     70  45  40 NE7       30.10S
JEFFERSON CITY SUNNY     73  43  33 N7        30.08S
MEXICO         SUNNY     68  48  49 N6        30.11S
ROLLA          SUNNY     70  45  40 N6        30.08S
LEBANON        SUNNY     72  43  35 N5        30.09F
OSAGE BEACH    SUNNY     72  43  35 N3        30.09R
SPRINGFIELD    SUNNY     74  43  32 CALM      30.08S
BRANSON        SUNNY     75  46  35 NW3       30.09S
JOPLIN         SUNNY     75  46  35 NE5       30.07S
WEST PLAINS    SUNNY     72  44  36 NE5       30.09S

$$

IAZ060-094-KSZ022-034>040-054-083-096-NEZ052-066-093-212300-
...KANSAS...SOUTHEAST NEBRASKA AND IOWA...

CITY           SKY/WX    TMP DP  RH WIND       PRES   REMARKS
TOPEKA         SUNNY     75  43  31 SE6       30.05S
MANHATTAN      SUNNY     77  51  40 SE8       30.01F
EMPORIA        SUNNY     75  53  46 SE9       30.04F
CHANUTE        SUNNY     74  56  53 SE5       30.05F
WICHITA        PTSUNNY   81  59  47 S9G20     30.01S
OMAHA          SUNNY     73  41  31 SE12      30.03F
LINCOLN        SUNNY     76  42  29 SE16      30.02F
FALLS CITY     SUNNY     73  37  27 SE7       30.04F
LAMONI         SUNNY     68  45  43 E7        30.10R
DES MOINES     SUNNY     66  43  43 E8        30.12R

$$




USA.gov is the U.S. government's official web portal to all federal, state and local government web resources and services.